User: anonymous   Login
Location: Homewood
(41.1836°S, 175.9581°E)
Time: 23:06:03
(UTC+00:00)
Language:

Cosmos 1867 - Orbit

View from above orbital plane
View from above orbital plane
View from above satellite
View from above satellite

Ground track
Ground track

The orbit data is extracted from the following two-line orbital elements,

1 18187U 87060A   24168.69636065  .00000011  00000-0  41790-4 0  9995
2 18187  65.0113 273.5674 0020919 272.1516  87.7173 14.31308085929615
Epoch (UTC): 16 June 2024 16:42:45
Eccentricity: 0.0020919
inclination: 65.0113°
perigee height: 772 km
apogee height: 802 km
right ascension of ascending node: 273.5674°
argument of perigee: 272.1516°
revolutions per day: 14.31308085
mean anomaly at epoch: 87.7173°
orbit number at epoch: 92961

The dashed part of the orbit path shows where the satellite is in the earth's shadow,  

DLR